CEB906 RPVE-RPLL

Flight info

Callsign CEB906
Flight time N/A
Altitude 26000
Route MINOR8A MINOR B473 LAIYA LAIYA5R
Aircraft A319/L-V/N

Departure

Time 2026-04-28 03:34
Airport Godofredo P. Ramos Airport (RPVE)

Arrival

Time N/A
Airport Ninoy Aquino International Airport (RPLL)
Time Latitude Longitude Altitude Speed Heading
2026-04-28 03:25 11.92653 121.96380 12 ft 0 kts 152°
2026-04-28 03:28 11.92657 121.96378 12 ft 2 kts 152°
2026-04-28 03:28 11.92670 121.96370 12 ft 2 kts 153°
2026-04-28 03:28 11.92685 121.96366 12 ft 2 kts 189°
2026-04-28 03:29 11.92698 121.96371 12 ft 2 kts 222°
2026-04-28 03:29 11.92704 121.96379 12 ft 1 kts 243°
2026-04-28 03:29 11.92707 121.96384 12 ft 0 kts 244°
2026-04-28 03:31 11.92698 121.96368 12 ft 5 kts 243°
2026-04-28 03:31 11.92676 121.96323 12 ft 9 kts 243°
2026-04-28 03:31 11.92641 121.96253 12 ft 12 kts 243°
2026-04-28 03:31 11.92647 121.96202 12 ft 9 kts 328°
2026-04-28 03:32 11.92714 121.96167 12 ft 11 kts 333°
2026-04-28 03:32 11.92792 121.96122 12 ft 13 kts 310°
2026-04-28 03:32 11.92630 121.95753 12 ft 14 kts 243°
2026-04-28 03:32 11.92280 121.95071 12 ft 15 kts 212°
2026-04-28 03:33 11.92243 121.95010 12 ft 9 kts 330°
2026-04-28 03:33 11.92278 121.95044 12 ft 3 kts 64°
2026-04-28 03:33 11.92315 121.95119 12 ft 38 kts 63°
2026-04-28 03:33 11.92593 121.95679 14 ft 134 kts 63°
2026-04-28 03:34 11.93050 121.96561 781 ft 148 kts 62°
2026-04-28 03:34 11.93520 121.97473 1908 ft 147 kts 63°
2026-04-28 03:34 11.93944 121.98302 2888 ft 131 kts 65°
2026-04-28 03:34 11.94342 121.99094 3605 ft 130 kts 66°
2026-04-28 03:35 11.94615 121.99645 4033 ft 133 kts 66°
2026-04-28 03:35 11.95209 122.00855 4702 ft 156 kts 66°
2026-04-28 03:35 11.95716 122.01887 5263 ft 173 kts 66°
2026-04-28 03:35 11.96464 122.02921 5875 ft 192 kts 43°
2026-04-28 03:36 11.97648 122.03661 6492 ft 210 kts 31°
2026-04-28 03:36 11.98981 122.04329 7261 ft 218 kts 30°
2026-04-28 03:36 12.00356 122.05002 8113 ft 221 kts 30°
2026-04-28 03:36 12.01741 122.05689 8957 ft 224 kts 29°
2026-04-28 03:37 12.03139 122.06390 9772 ft 227 kts 29°
2026-04-28 03:37 12.04553 122.07102 10585 ft 230 kts 29°
2026-04-28 03:37 12.05976 122.07821 11380 ft 232 kts 28°
2026-04-28 03:37 12.07406 122.08545 12147 ft 234 kts 28°
2026-04-28 03:38 12.08870 122.09287 12902 ft 236 kts 28°
2026-04-28 03:38 12.10350 122.10036 13635 ft 238 kts 28°
2026-04-28 03:38 12.11825 122.10778 14337 ft 240 kts 27°
2026-04-28 03:38 12.13326 122.11531 15016 ft 242 kts 27°
2026-04-28 03:39 12.14839 122.12292 15688 ft 245 kts 27°
2026-04-28 03:39 12.15868 122.12811 16137 ft 246 kts 27°
2026-04-28 03:40 12.24216 122.17029 19388 ft 260 kts 27°
2026-04-28 03:40 12.25838 122.17851 19954 ft 264 kts 27°
2026-04-28 03:41 12.27516 122.18700 20511 ft 267 kts 27°
2026-04-28 03:41 12.29177 122.19543 21057 ft 270 kts 27°
2026-04-28 03:41 12.30865 122.20398 21592 ft 274 kts 27°
2026-04-28 03:41 12.32590 122.21273 22121 ft 277 kts 27°
2026-04-28 03:42 12.34140 122.22060 22592 ft 281 kts 27°
2026-04-28 03:42 12.34674 122.22326 22751 ft 282 kts 25°